STARLINK-3121, 49428

Orbit data source: Space-Track

STARLINK-3121, 49428 is a payload satellite owned by SpaceX/Seattle (US) in LEO that was launched on Sat, 13 Nov 2021 UTC via an FALCON 9 launch vehicle from the Air Force Eastern Test Range (AFETR). Payload-class satellites include a variety of spacecraft equipped with specific instruments for various scientific and technological missions. These include communications satellites like Starlink; space stations such as the ISS; scientific satellites like the Hubble; Earth observation satellites from companies like Planet Labs, Umbra, and HawkEye 360; GPS; miniature CubeSats for education and research; and military/defense satellites.

Loading next visibility...
Identifier
49428, 2021-104W
Orbit
LEO
Country
Flag of USUS
Related business
Manufacturer
SpaceX/Seattle
Mission
Operational Commercial Communications
Bus & Motor
STARLINK, Unknown motor
Mass
290 kg wet, ~270 kg dry
Launch date (UTC)
2021-11-13 (5 years ago)
Launch vehicle
FALCON 9
Launch site
Air Force Eastern Test Range (AFETR)
Object type
Payload
Rocket body
Debris
Shape & HBR
Box + 1 Pan, 10.1 m
Radar Cross Section
13.562 m², Large (>1 m²)

Expand to show TLE details & history
Last TLE update: 1 week ago

TLE from 1 week ago
0 STARLINK-3121
1 49428U 21104W   26154.30145169 -.00000324  00000-0 -22823-5 0  9995
2 49428  53.1815 204.6872 0001388  37.0637 323.0450 15.08830164251569
Epoch: 2026-06-03T07:14Z
TLE epoch observation values (Epoch: 2026-06-03T07:14:05.426Z)
Latitude
-0.00003°
Longitude
-155.59746°
Altitude
539.9 km
Speed
7.594 km/s
True Right ascension
13h 38m 44s
True Declination
0° 00' 00"
Sunlit
Object was in full shadow at epoch
Visualization orbit readout
Latitude
Unknown
Longitude
Unknown
Altitude
Unknown
Speed
Unknown
Apparent Right ascension
Unknown
Apparent Declination
Unknown
Sunlit
N/A
Visualization observer readout
Local Sidereal Time
14:51:32
Azimuth
Unknown
Elevation
Unknown
Doppler factor
Unknown
Orbital elements
Apogee altitude
540.984 km
Perigee altitude
539.064 km
Semi-major axis
6,918.161 km
Eccentricity
0.00014
Inclination
53.1815°
RAAN
204.6872°
Arg. of periapsis
37.0637°
True anomaly
323.03544°
Mean anomaly
323.045°
Eccentric anomaly
323.04022°
Mean motion
3.77187 °/min
Orbital period
95.44 mins
BSTAR
-0.0000022823
Loading maneuver chart data...
Computing Atmospheric mass density...
Loading historical data...
Loading historical data...
Loading historical data...
Loading historical data...
Loading historical data...
Loading historical data...
Loading historical data...

Documentation

Showing up to 5 results
|